GW4500 Weather Reports


Display with metric or nautical units.
time (UTC)temp
F
wind
direction
speed
MPH
gust
MPH
rain 1hr
in
rain 24hr
in
rain mn
in
humidity
%
barometer
mb
20260510033405 61 240 12.0 14.0 0.00 0.14 0.14 73 1013.7
20260510032901 61 248 7.0 9.0 0.00 0.14 0.14 73 1013.6
20260510032358 60 228 7.0 9.0 0.00 0.14 0.14 73 1013.6
20260510031853 60 229 3.0 3.0 0.00 0.14 0.14 73 1013.6
20260510031349 61 235 5.0 9.0 0.00 0.14 0.14 72 1013.7
20260510030848 61 223 4.0 6.0 0.00 0.14 0.14 72 1013.5
20260510030346 61 225 8.0 10.0 0.00 0.14 0.14 72 1013.4
20260510025843 61 218 3.0 5.0 0.00 0.14 0.14 72 1013.4
20260510025340 61 230 3.0 5.0 0.00 0.14 0.14 71 1013.3
20260510024837 61 183 7.0 8.0 0.00 0.14 0.14 71 1013.3
20260510024334 61 235 9.0 11.0 0.00 0.14 0.14 71 1013.5
20260510023830 61 199 4.0 6.0 0.00 0.14 0.14 71 1013.3
20260510023326 61 188 4.0 7.0 0.00 0.14 0.14 71 1013.2
20260510022824 61 213 5.0 7.0 0.00 0.14 0.14 71 1013.1
20260510022323 61 222 5.0 7.0 0.00 0.14 0.14 71 1013.3
20260510021822 61 194 4.0 5.0 0.00 0.14 0.14 71 1013.4
20260510021321 61 184 5.0 6.0 0.00 0.14 0.14 71 1013.1
20260510020816 61 231 6.0 7.0 0.00 0.14 0.14 71 1013.0
20260510020311 61 209 4.0 5.0 0.00 0.14 0.14 71 1013.1
20260510015807 61 235 3.0 3.0 0.00 0.14 0.14 71 1012.9
20260510015306 61 225 5.0 8.0 0.00 0.14 0.14 71 1012.9
20260510014759 61 217 3.0 3.0 0.00 0.14 0.14 70 1012.9
20260510014256 61 217 5.0 6.0 0.00 0.14 0.14 70 1012.7
20260510013753 61 200 5.0 6.0 0.00 0.14 0.14 70 1012.8
20260510013248 61 214 6.0 7.0 0.00 0.14 0.14 70 1012.6
20260510012743 61 204 4.0 5.0 0.00 0.14 0.14 71 1012.5
20260510012238 61 211 4.0 6.0 0.00 0.14 0.14 71 1012.5
20260510011737 61 203 2.0 2.0 0.00 0.14 0.14 71 1012.6
20260510011233 61 202 3.0 5.0 0.00 0.14 0.14 70 1012.5
20260510010730 61 223 5.0 6.0 0.00 0.14 0.14 70 1012.5
20260510010226 61 212 5.0 6.0 0.00 0.14 0.14 70 1012.3
20260510005723 61 186 3.0 3.0 0.00 0.14 0.14 70 1012.4
20260510005220 61 228 2.0 3.0 0.00 0.14 0.14 70 1012.4
20260510004718 61 232 3.0 3.0 0.00 0.14 0.14 70 1012.2
20260510004216 61 220 5.0 6.0 0.00 0.14 0.14 70 1012.2
20260510003713 61 217 2.0 2.0 0.00 0.14 0.14 69 1012.2
20260510003209 61 200 3.0 5.0 0.00 0.14 0.14 69 1012.1
20260510002708 61 212 3.0 3.0 0.00 0.14 0.14 69 1012.2
20260510002205 62 210 3.0 3.0 0.00 0.14 0.14 69 1012.0
20260510001702 62 227 4.0 6.0 0.00 0.14 0.14 68 1011.9
20260510001202 62 202 1.0 2.0 0.00 0.14 0.14 68 1012.0
20260510000702 62 206 3.0 3.0 0.00 0.14 0.14 68 1011.7
20260510000159 62 207 3.0 5.0 0.00 0.14 0.14 67 1011.9
20260509235656 63 225 2.0 2.0 0.00 0.14 0.14 67 1011.9
20260509235152 63 249 5.0 6.0 0.00 0.14 0.14 66 1011.4
20260509234648 64 242 5.0 6.0 0.00 0.14 0.14 65 1011.3
20260509234146 64 243 4.0 5.0 0.00 0.14 0.14 65 1011.6
20260509233644 64 230 1.0 2.0 0.00 0.14 0.14 65 1011.5
20260509233141 64 231 4.0 6.0 0.00 0.14 0.14 64 1011.7
20260509232637 64 231 2.0 2.0 0.00 0.14 0.14 63 1011.3
20260509232134 64 207 4.0 5.0 0.00 0.14 0.14 63 1011.6
20260509231630 64 218 5.0 6.0 0.00 0.14 0.14 63 1011.5
20260509231128 64 256 6.0 7.0 0.00 0.14 0.14 63 1011.4
20260509230625 64 227 7.0 9.0 0.00 0.14 0.14 63 1011.4
20260509230122 64 224 6.0 8.0 0.00 0.14 0.14 63 1011.5
20260509225618 64 222 2.0 2.0 0.00 0.14 0.14 63 1011.6
20260509225113 64 200 5.0 10.0 0.00 0.14 0.14 63 1011.5
20260509224608 65 238 8.0 9.0 0.00 0.14 0.14 62 1011.7
20260509224106 65 231 4.0 5.0 0.00 0.14 0.14 62 1011.6
20260509223603 65 236 7.0 10.0 0.00 0.14 0.14 61 1011.7
20260509223100 65 281 11.0 15.0 0.00 0.14 0.14 62 1011.7
20260509222556 65 268 7.0 8.0 0.00 0.14 0.14 61 1011.9
20260509222052 65 246 5.0 13.0 0.00 0.14 0.14 61 1011.9
20260509221548 65 253 7.0 10.0 0.00 0.14 0.14 62 1011.9
20260509221044 64 234 3.0 5.0 0.00 0.14 0.14 62 1012.0
20260509220540 66 229 9.0 13.0 0.00 0.14 0.14 61 1012.0
20260509220037 66 206 3.0 3.0 0.00 0.14 0.14 62 1012.0
20260509215532 66 227 7.0 8.0 0.00 0.14 0.14 61 1012.0
20260509215030 67 243 5.0 7.0 0.00 0.14 0.14 61 1012.0
20260509214527 66 248 7.0 9.0 0.00 0.14 0.14 61 1012.0
20260509214023 65 221 7.0 8.0 0.00 0.14 0.14 64 1012.0
20260509213520 64 240 5.0 7.0 0.00 0.14 0.14 64 1012.1
20260509213017 65 232 8.0 9.0 0.00 0.14 0.14 63 1012.0
20260509212514 64 221 1.0 1.0 0.00 0.14 0.14 65 1012.1
20260509212011 64 221 5.0 7.0 0.00 0.14 0.14 64 1011.5
20260509211506 65 284 6.0 8.0 0.00 0.14 0.14 62 1012.0
20260509211003 65 244 6.0 7.0 0.00 0.14 0.14 63 1012.1
20260509210500 64 230 4.0 7.0 0.00 0.14 0.14 65 1012.0
20260509205955 65 238 4.0 6.0 0.00 0.14 0.14 66 1012.0
20260509205450 65 185 2.0 3.0 0.00 0.14 0.14 65 1012.1
20260509204946 65 185 7.0 9.0 0.00 0.14 0.14 63 1011.9
20260509204443 64 221 3.0 3.0 0.00 0.14 0.14 66 1011.7
20260509203939 64 244 3.0 3.0 0.00 0.14 0.14 67 1012.2
20260509203435 64 282 5.0 6.0 0.00 0.14 0.14 66 1012.0
20260509202933 64 272 4.0 5.0 0.00 0.14 0.14 67 1012.3
20260509202429 63 241 1.0 2.0 0.00 0.14 0.14 71 1012.2
20260509201924 63 231 2.0 3.0 0.00 0.14 0.14 71 1012.3
20260509201419 62 242 3.0 3.0 0.00 0.14 0.14 69 1012.0
20260509200917 62 267 4.0 5.0 0.00 0.14 0.14 70 1012.3
20260509200416 63 297 3.0 5.0 0.00 0.14 0.14 69 1012.2
20260509195913 63 318 5.0 6.0 0.00 0.14 0.14 67 1012.4
20260509195408 63 270 4.0 5.0 0.00 0.14 0.14 70 1012.6
20260509194902 62 235 6.0 8.0 0.00 0.14 0.14 70 1012.5
20260509194359 63 227 7.0 9.0 0.00 0.14 0.14 67 1012.5
20260509193855 63 219 4.0 5.0 0.00 0.14 0.14 68 1012.5
20260509193350 63 251 9.0 10.0 0.00 0.14 0.14 67 1012.3
20260509192846 64 258 6.0 8.0 0.00 0.14 0.14 71 1012.8
20260509192343 63 227 1.0 1.0 0.00 0.14 0.14 72 1012.5
20260509191838 62 236 6.0 8.0 0.00 0.14 0.14 69 1012.5
20260509191334 62 225 1.0 1.0 0.00 0.14 0.14 72 1012.6
20260509190830 62 298 3.0 6.0 0.00 0.14 0.14 72 1012.6
20260509190327 61 226 6.0 7.0 0.00 0.14 0.14 71 1012.6
20260509185825 62 233 3.0 3.0 0.00 0.14 0.14 70 1012.5
20260509185321 62 249 5.0 7.0 0.00 0.14 0.14 72 1012.6
20260509184818 61 226 5.0 6.0 0.00 0.14 0.14 73 1012.6
20260509184315 60 233 7.0 8.0 0.00 0.14 0.14 73 1012.4
20260509183812 60 186 3.0 3.0 0.00 0.14 0.14 73 1012.3
20260509183307 59 243 7.0 8.0 0.00 0.14 0.14 73 1012.5
20260509182803 59 213 7.0 8.0 0.00 0.14 0.14 74 1012.3
20260509182300 59 209 5.0 6.0 0.00 0.14 0.14 75 1012.5
20260509181757 59 235 4.0 5.0 0.00 0.14 0.14 74 1012.7
20260509181255 59 226 3.0 6.0 0.00 0.14 0.14 76 1012.4
20260509180752 59 224 2.0 3.0 0.00 0.14 0.14 76 1012.7
20260509180248 59 228 6.0 7.0 0.00 0.14 0.14 74 1012.4
20260509175745 59 238 6.0 7.0 0.00 0.14 0.14 74 1012.3
20260509175241 58 224 1.0 2.0 0.00 0.14 0.14 77 1012.6
20260509174737 58 226 4.0 5.0 0.00 0.14 0.14 76 1012.6
20260509174233 58 218 3.0 3.0 0.00 0.14 0.14 76 1012.5
20260509173729 57 217 3.0 3.0 0.00 0.14 0.14 76 1012.8
20260509173225 57 226 1.0 2.0 0.00 0.14 0.14 76 1012.5
20260509172721 57 204 5.0 7.0 0.00 0.14 0.14 77 1012.5
20260509172218 57 216 3.0 3.0 0.00 0.14 0.14 78 1012.5
20260509171713 56 211 2.0 2.0 0.00 0.14 0.14 77 1012.8
20260509171210 56 216 1.0 1.0 0.00 0.14 0.14 78 1012.6
20260509170707 56 203 2.0 2.0 0.00 0.14 0.14 79 1012.8
20260509170202 56 227 3.0 3.0 0.00 0.14 0.14 79 1012.8
20260509165701 56 204 2.0 2.0 0.00 0.14 0.14 80 1012.6
20260509165156 56 216 2.0 2.0 0.00 0.14 0.14 81 1012.7
20260509164653 57 228 1.0 1.0 0.00 0.14 0.14 81 1012.7
20260509164148 57 206 2.0 2.0 0.00 0.14 0.14 79 1012.9
20260509163646 57 217 1.0 1.0 0.00 0.14 0.14 80 1012.6
20260509163142 56 200 3.0 5.0 0.00 0.14 0.14 82 1012.7
20260509162640 56 216 2.0 2.0 0.00 0.14 0.14 85 1012.3
20260509162135 56 158 2.0 3.0 0.00 0.14 0.14 85 1012.5
20260509161631 55 157 3.0 5.0 0.00 0.14 0.14 85 1012.7
20260509161126 55 216 0.0 1.0 0.00 0.14 0.14 86 1013.0
20260509160623 55 216 0.0 1.0 0.00 0.14 0.14 86 1012.8
20260509160118 55 205 1.0 1.0 0.00 0.14 0.14 85 1012.9
20260509155615 55 215 1.0 2.0 0.00 0.14 0.14 86 1012.8
20260509155111 55 213 1.0 1.0 0.00 0.14 0.14 86 1012.9
20260509154607 55 215 2.0 2.0 0.00 0.14 0.14 85 1013.2
20260509154104 55 215 1.0 1.0 0.00 0.14 0.14 85 1013.3
20260509153601 55 215 3.0 3.0 0.00 0.14 0.14 82 1013.2
20260509153058 55 228 3.0 3.0 0.00 0.14 0.14 84 1013.0
20260509152554 55 201 1.0 2.0 0.00 0.14 0.14 86 1013.2
20260509152051 54 215 2.0 2.0 0.00 0.14 0.14 87 1013.0
20260509151547 54 205 2.0 2.0 0.00 0.14 0.14 87 1013.2
20260509151045 54 216 0.0 0.0 0.00 0.14 0.14 87 1013.3
20260509150543 54 216 1.0 1.0 0.00 0.14 0.14 86 1013.4
20260509150041 54 210 2.0 3.0 0.00 0.14 0.14 85 1013.3
20260509145536 53 211 2.0 3.0 0.00 0.14 0.14 86 1013.2
20260509145031 54 224 1.0 1.0 0.00 0.14 0.14 87 1013.3
20260509144529 53 216 1.0 1.0 0.00 0.14 0.14 87 1013.2
20260509144026 53 205 2.0 2.0 0.00 0.14 0.14 88 1013.4
20260509143522 53 215 0.0 1.0 0.00 0.14 0.14 89 1013.3
20260509143021 53 215 0.0 0.0 0.00 0.14 0.14 89 1013.3
20260509142516 53 215 1.0 1.0 0.00 0.14 0.14 89 1013.3
20260509142011 52 216 0.0 1.0 0.00 0.14 0.14 89 1013.1
20260509141508 52 212 1.0 2.0 0.00 0.14 0.14 89 1013.2
20260509141005 52 218 0.0 0.0 0.00 0.14 0.14 89 1013.3
20260509140502 52 211 1.0 1.0 0.00 0.14 0.14 89 1013.3
20260509140000 52 219 1.0 2.0 0.00 0.14 0.14 89 1013.3
20260509135457 52 224 2.0 2.0 0.05 0.14 0.14 89 1013.3
20260509134954 52 216 1.0 1.0 0.05 0.14 0.14 89 1013.5
20260509134451 52 226 2.0 2.0 0.00 0.13 0.13 89 1013.4
20260509133949 52 216 1.0 1.0 0.00 0.13 0.13 89 1013.5
20260509133445 52 216 0.0 0.0 0.00 0.13 0.13 89 1013.4
20260509132943 52 203 1.0 2.0 0.00 0.13 0.13 89 1013.3
20260509132441 52 200 2.0 2.0 0.00 0.13 0.13 89 1013.4
20260509131938 52 204 1.0 2.0 0.00 0.13 0.13 89 1013.4
20260509131435 52 215 2.0 2.0 0.00 0.13 0.13 89 1013.6
20260509130932 52 216 2.0 2.0 0.00 0.13 0.13 89 1013.5
20260509130427 51 190 3.0 3.0 0.07 0.13 0.13 89 1013.4
20260509125924 51 172 4.0 5.0 0.07 0.13 0.13 90 1013.4
20260509125421 51 213 1.0 1.0 0.00 0.12 0.12 91 1013.8
20260509124917 51 205 1.0 2.0 0.05 0.12 0.12 90 1013.9
20260509124414 51 202 1.0 2.0 0.05 0.12 0.12 90 1013.8
20260509123912 51 222 3.0 5.0 0.07 0.11 0.11 90 1014.1
20260509123409 51 233 4.0 6.0 0.07 0.11 0.11 90 1013.8
20260509122904 51 216 2.0 2.0 0.00 0.10 0.10 91 1013.9
20260509122402 51 201 2.0 2.0 0.00 0.10 0.10 90 1013.8
20260509121858 51 196 2.0 2.0 0.05 0.10 0.10 90 1013.8
20260509121355 50 215 2.0 2.0 0.05 0.10 0.10 91 1013.9
20260509120854 51 204 1.0 1.0 0.00 0.09 0.09 91 1013.8
20260509120351 51 213 3.0 3.0 0.00 0.09 0.09 91 1014.1
20260509115849 51 199 2.0 2.0 0.07 0.09 0.09 91 1014.1
20260509115346 51 211 1.0 2.0 0.07 0.09 0.09 90 1013.9
20260509114844 51 205 1.0 2.0 0.00 0.08 0.08 89 1013.9
20260509114342 51 225 1.0 1.0 0.00 0.08 0.08 88 1013.9
20260509113841 51 217 0.0 0.0 0.00 0.08 0.08 87 1013.8
20260509113337 51 222 2.0 3.0 0.00 0.08 0.08 87 1013.7
20260509112834 51 199 2.0 2.0 0.00 0.08 0.08 89 1013.7
20260509112331 51 196 3.0 3.0 0.00 0.08 0.08 88 1013.5
20260509111828 51 204 1.0 2.0 0.00 0.08 0.08 88 1013.7
20260509111325 51 186 3.0 3.0 0.05 0.08 0.08 89 1013.5
20260509110823 51 204 2.0 2.0 0.05 0.08 0.08 89 1013.5
20260509110319 51 215 0.0 0.0 0.00 0.07 0.07 88 1013.5
20260509105817 51 215 1.0 1.0 0.00 0.07 0.07 88 1013.4
20260509105315 51 204 1.0 1.0 0.00 0.07 0.07 88 1013.2
20260509104812 50 208 2.0 3.0 0.00 0.07 0.07 90 1013.4
20260509104308 50 163 4.0 5.0 0.00 0.07 0.07 90 1013.6
20260509103806 50 186 2.0 3.0 0.07 0.07 0.07 90 1013.3
20260509103303 50 186 1.0 2.0 0.07 0.07 0.07 91 1013.5
20260509102802 50 177 2.0 2.0 0.00 0.06 0.06 92 1013.5
20260509102259 50 210 1.0 2.0 0.00 0.06 0.06 92 1013.4
20260509101755 50 215 1.0 1.0 0.00 0.06 0.06 92 1013.7
20260509101251 50 254 1.0 2.0 0.00 0.06 0.06 91 1013.6
20260509100748 50 203 1.0 1.0 0.00 0.06 0.06 90 1013.5
20260509100246 50 211 2.0 2.0 0.05 0.06 0.06 90 1013.5
20260509095742 50 230 1.0 1.0 0.05 0.06 0.06 89 1013.8
20260509095240 51 216 1.0 1.0 0.00 0.05 0.05 89 1013.9
20260509094737 50 228 1.0 1.0 0.07 0.05 0.05 88 1013.9
20260509094233 51 216 1.0 1.0 0.07 0.05 0.05 88 1013.9
20260509093731 51 213 1.0 1.0 0.00 0.04 0.04 88 1013.8
20260509093228 51 216 0.0 1.0 0.07 0.04 0.04 88 1014.1
20260509092727 51 215 0.0 0.0 0.07 0.04 0.04 88 1014.3
20260509092224 51 216 0.0 0.0 0.00 0.03 0.03 88 1013.9
20260509091722 51 193 2.0 2.0 0.00 0.03 0.03 87 1014.1
20260509091218 51 214 1.0 2.0 0.00 0.03 0.03 86 1014.3
20260509090716 51 224 0.0 1.0 0.00 0.03 0.03 86 1014.3
20260509090213 51 227 0.0 0.0 0.00 0.03 0.03 85 1014.3
20260509085711 51 235 3.0 3.0 0.05 0.03 0.03 84 1014.4
20260509085207 52 225 1.0 1.0 0.12 0.03 0.03 84 1014.1
20260509084704 52 216 1.0 1.0 0.12 0.02 0.02 82 1013.9
20260509084201 53 216 0.0 1.0 0.05 0.01 0.01 81 1014.3
20260509083659 53 225 5.0 6.0 0.00 0.00 0.00 78 1014.2
20260509083154 54 211 5.0 6.0 0.00 0.00 0.00 76 1014.4
20260509082652 54 233 5.0 7.0 0.00 0.00 0.00 74 1014.4
20260509082148 55 294 9.0 18.0 0.00 0.00 0.00 70 1014.6
20260509081645 56 267 5.0 6.0 0.00 0.00 0.00 67 1014.1
20260509081143 56 214 2.0 2.0 0.00 0.00 0.00 66 1013.9
20260509080641 57 239 5.0 7.0 0.00 0.00 0.00 64 1013.8
20260509080138 57 220 4.0 5.0 0.00 0.00 0.00 63 1013.3
20260509075636 58 251 4.0 5.0 0.00 0.00 0.00 61 1013.3
20260509075134 58 234 8.0 11.0 0.00 0.00 0.00 59 1013.1
20260509074631 58 178 5.0 6.0 0.00 0.00 0.00 59 1013.0
20260509074127 58 223 3.0 3.0 0.00 0.00 0.00 58 1012.8
20260509073624 58 220 5.0 7.0 0.00 0.00 0.00 56 1012.5
20260509073120 59 179 4.0 7.0 0.00 0.00 0.00 55 1012.8
20260509072617 59 241 9.0 10.0 0.00 0.00 0.00 54 1012.8
20260509072114 59 227 9.0 15.0 0.00 0.00 0.00 51 1012.7
20260509071610 59 201 7.0 7.0 0.00 0.00 0.00 50 1012.7
20260509071108 60 215 7.0 9.0 0.00 0.00 0.00 49 1012.7
20260509070605 60 208 3.0 3.0 0.00 0.00 0.00 49 1012.6
20260509070101 60 206 3.0 3.0 0.00 0.00 0.00 49 1012.5
20260509065556 60 216 7.0 10.0 0.00 0.00 0.00 48 1012.6
20260509065053 59 225 5.0 8.0 0.00 0.00 0.00 49 1012.5
20260509064550 60 231 5.0 6.0 0.00 0.00 0.00 48 1012.4
20260509064048 60 242 5.0 9.0 0.00 0.00 0.00 49 1012.6
20260509063544 59 183 3.0 3.0 0.00 0.00 0.00 50 1012.4
20260509063041 59 176 3.0 5.0 0.00 0.00 0.00 50 1012.6
20260509062538 59 188 5.0 6.0 0.00 0.00 0.00 50 1012.8
20260509062036 59 193 3.0 5.0 0.00 0.00 0.00 50 1012.7
20260509061532 59 214 1.0 2.0 0.00 0.00 0.00 51 1012.7
20260509061030 59 193 4.0 5.0 0.00 0.00 0.00 50 1012.9
20260509060527 59 201 2.0 3.0 0.00 0.00 0.00 51 1012.7
20260509060022 59 209 2.0 2.0 0.00 0.00 0.00 50 1012.8
20260509055518 59 211 2.0 2.0 0.00 0.00 0.00 50 1012.8
20260509055014 60 203 3.0 3.0 0.00 0.00 0.00 49 1013.1
20260509054511 59 220 3.0 3.0 0.00 0.00 0.00 49 1013.1
20260509054009 59 198 3.0 5.0 0.00 0.00 0.00 49 1013.1
20260509053507 59 213 1.0 1.0 0.00 0.00 0.00 51 1013.0
20260509053004 59 206 2.0 2.0 0.00 0.00 0.00 50 1013.0
20260509052501 59 202 1.0 1.0 0.00 0.00 0.00 50 1013.1
20260509051959 59 219 0.0 1.0 0.00 0.00 0.00 51 1013.4
20260509051457 59 205 2.0 2.0 0.00 0.00 0.00 51 1013.6
20260509050954 60 216 2.0 2.0 0.00 0.00 0.00 50 1013.3
20260509050450 60 209 2.0 2.0 0.00 0.00 0.00 49 1013.5
20260509045947 60 219 4.0 5.0 0.00 0.00 0.00 49 1013.6
20260509045444 59 204 2.0 2.0 0.00 0.00 0.00 50 1013.5
20260509044941 59 204 2.0 2.0 0.00 0.00 0.00 51 1013.4
20260509044439 59 203 1.0 2.0 0.00 0.00 0.00 52 1013.4
20260509043936 59 203 3.0 3.0 0.00 0.00 0.00 52 1013.6
20260509043431 59 211 3.0 3.0 0.00 0.00 0.00 51 1013.8
20260509042927 59 210 2.0 2.0 0.00 0.00 0.00 53 1013.7
20260509042425 59 203 1.0 2.0 0.00 0.00 0.00 52 1013.8
20260509041920 59 201 1.0 2.0 0.00 0.00 0.00 52 1013.9
20260509041418 59 194 3.0 5.0 0.00 0.00 0.00 51 1013.9
20260509040916 59 200 3.0 5.0 0.00 0.00 0.00 52 1013.8
20260509040413 59 213 2.0 2.0 0.00 0.00 0.00 51 1014.2
20260509035910 59 213 1.0 1.0 0.00 0.00 0.00 52 1014.2
20260509035407 59 203 1.0 2.0 0.00 0.00 0.00 51 1014.1
20260509034903 59 215 3.0 3.0 0.00 0.00 0.00 52 1014.2
20260509034401 59 202 2.0 2.0 0.00 0.00 0.00 52 1013.9
20260509033858 59 203 2.0 2.0 0.00 0.00 0.00 51 1014.2